Flag for Germany Weather past 2 weeks in Wittenberg, Saxony-Anhalt, Germany

Now
59 °F

Passing clouds.


Feels Like: 59 °F
Forecast: 47 / 61 °F
Wind: 2 mph from Southeast

Location: Holzdorf

Current Time: May 29, 2015 at 11:29:53 PM

Latest Report: May 29, 2015 at 10:20 PM


Visibility: N/A

Pressure: 29.74 "Hg

Humidity: 63%

Dew point: 46 °F

Location of WittenbergLocation

Historic Weather in Wittenberg — Graph

°F

Wittenberg temperature yesterday

Maximum temperature yesterday: 68 °F (at 3:20 PM)
Minimum temperature yesterday: 36 °F (at 5:20 AM)
Average temperature yesterday: 54 °F

Past Weeks' High & Low Weather Summary

 TemperatureHumidityPressure
High73 °F (May 18, 6:20 PM)100% (May 14, 11:20 PM)30.33 "Hg (May 14, 11:20 PM)
Low30 °F (May 15, 4:20 AM)27% (May 24, 7:20 PM)29.62 "Hg (May 19, 1:20 AM)
Average55 °F64%30.01 "Hg
* Reported May 14 9:20 PM — May 29 9:20 PM, Wittenberg, Weather by CustomWeather, © 2015

Note: Actual official high and low records may vary slightly from our data, if they occured in-between our weather recording intervals... More about our weather records

Advertising

Wittenberg weather history for previous 24 hours

 ConditionsComfort  
Time TempWeatherWind HumidityBarometerVisibility
9:20 PM
Fri, May 29
61 °FPartly sunny.2 mph55%29.74 "HgN/A
8:20 PM66 °FPartly sunny.5 mph43%29.74 "HgN/A
7:20 PM68 °FPartly sunny.10 mph40%29.77 "HgN/A
6:20 PM70 °FPartly sunny.10 mph35%29.77 "HgN/A
5:20 PM70 °FBroken clouds.12 mph35%29.77 "HgN/A
4:20 PM70 °FBroken clouds.8 mph43%29.77 "HgN/A
3:20 PM66 °FCloudy.5 mph46%29.80 "HgN/A
2:20 PM66 °FMore clouds than sun.6 mph46%29.83 "HgN/A
1:20 PM64 °FBroken clouds.7 mph52%29.86 "HgN/A
12:20 PM63 °FBroken clouds.5 mph56%29.89 "HgN/A
11:20 AM61 °FBroken clouds.3 mph59%29.92 "HgN/A
11:00 AM61 °FBroken clouds.3 mph55%29.92 "HgN/A
10:20 AM59 °FBroken clouds.6 mph59%29.92 "HgN/A
9:20 AM57 °FPartly sunny.3 mph63%29.95 "HgN/A
8:20 AM55 °FScattered clouds.3 mph77%29.95 "HgN/A
7:20 AM52 °FScattered clouds.3 mph88%29.95 "Hg6 mi
6:20 AM50 °FScattered clouds.2 mph94%29.95 "HgN/A
5:20 AM48 °FPassing clouds.6 mph100%29.92 "HgN/A
4:20 AM48 °FPartly cloudy.6 mph100%29.95 "HgN/A
3:20 AM50 °FPartly cloudy.6 mph94%29.92 "HgN/A
2:20 AM50 °FPartly cloudy.2 mph100%29.92 "HgN/A
1:20 AM52 °FPassing clouds.2 mph94%29.92 "HgN/A
11:20 PM
Thu, May 28
54 °FPassing clouds.2 mph94%29.95 "HgN/A
Weather by CustomWeather, © 2015

See weather overviewHow to use our weather pages